Regional Weather Roundup
Issued by NWS

Home | Current Version | Previous Version | Text Only | Print | Product List | Glossary Off
Versions: 1 2 3 4 5 6 7 8 9 10 11 12 13 14 15 16 17 18 19 20 21 22 23 24 25 26 27 28 29 30 31 32 33 34 35 36 37 38 39 40 41 42 43 44 45 46 47 48 49 50

883
ASUS45 KBOI 212310
RWRID

IDAHO REGIONAL WEATHER ROUNDUP
NATIONAL WEATHER SERVICE BOISE ID
500 PM MDT MON MAY 21 2018

NOTE: "FAIR" INDICATES FEW OR NO CLOUDS BELOW 12000 FEET
WITH NO SIGNIFICANT WEATHER AND/OR OBSTRUCTIONS TO VISIBILITY

IDZ012-014-220000-
SOUTHWEST IDAHO


CITY           SKY/WX    TMP DP  RH WIND       PRES   REMARKS
BOISE          SUNNY     77  50  38 VRB3      29.84F
CALDWELL       SUNNY     79  51  37 N5        29.84F
MOUNTAIN HOME  MOSUNNY   77  47  34 NW6       29.83F
$$

IDZ016-017-220000-
SOUTHCENTRAL IDAHO


CITY           SKY/WX    TMP DP  RH WIND       PRES   REMARKS
BURLEY         PTSUNNY   75  48  38 N3        29.86F
JEROME         MOSUNNY   73  47  39 CALM      29.88F
TWIN FALLS     PTSUNNY   70  50  49 NW6       29.89S
$$

IDZ019>023-220000-
SOUTHEAST IDAHO


CITY           SKY/WX    TMP DP  RH WIND       PRES   REMARKS
IDAHO FALLS    MOSUNNY   73  43  33 S10       29.91F
POCATELLO      PTSUNNY   73  46  38 NW6       29.90F
REXBURG        MOSUNNY   74  40  29 SW8       29.91F
$$

IDZ006-010-011-018-031-032-220000-
CENTRAL IDAHO MOUNTAINS


CITY           SKY/WX    TMP DP  RH WIND       PRES   REMARKS
MCCALL         MOSUNNY   62  47  57 W6        29.95F
HAILEY         MOSUNNY   70  46  43 NW8       29.95F
STANLEY          N/A     65  38  36 N6        29.98F
SALMON         CLOUDY    69  45  41 N8        29.91F
CHALLIS        PTSUNNY   73  41  31 NE3       29.92F
$$

IDZ002-004-006-007-026-220000-
NORTHERN IDAHO


CITY           SKY/WX    TMP DP  RH WIND       PRES   REMARKS
LEWISTON       MOSUNNY   79  52  38 NW8       29.90F
LOWELL           N/A     70  55  59 MISG      29.88F
COEUR D`ALENE  PTSUNNY   74  52  46 S7        29.92F
MULLAN PASS    LGT RAIN  46  45  96 NW8       30.05S FOG
$$




USA.gov is the U.S. government's official web portal to all federal, state and local government web resources and services.